"Pseudo-MPEC" for C0GVF75

Created 2023 Mar 22 15:22:05 UT using Find_Orb

Click here for an explanation of pseudo-MPECs

 
 Astrometry: 
     C0GVF75* C2023 03 18Sd\o^2GvdY_n(hkAstrometryIXMm0D+ELZpMkb,oJ8dcJ2_4kD)V00
     C0GVF75  C2023 03 18Mftvx!i/EN.LbXyTt`Vi0HTMr@3,e1i8x=5PX9-GjoZi#TO3D:[RV00
     C0GVF75  C2023 03 18g-r:]f]u!dn?C.7P/'yiqWDDB:Zt(gl\[)H?$f@i592wQ,2oP)t*V00
     C0GVF75 |C2023 03 19KpDredacted;+jL6c.?eMCRGfA:REnJX;xNEIDD.h$click[$giC807
     C0GVF75 |C2023 03 19-pA_q-1`x1.Hi#*%+*NP(7r`rw(;t5e;t\ITG/RXqTGx1,#=j+GL807
     C0GVF75 |C2023 03 19B?2np:/kOt,#0/1Xr=jjr8h)xEhPG:sghereLg]AQ(pK5t6x+nqI807
     C0GVF75 |C2023 03 20^auP)X(NYJ$dQGk?_fJg\uVV1UY?rgnHJLQx_!V@@.ge'QQHgXxl807
     C0GVF75 |C2023 03 20g:Km3C4'F^SQ\m,93!TE([PY)9;+)0WvCT1JToW+,$lE7Llr('H;807
     C0GVF75 |C2023 03 200@T%\`.Fq+i%pmZ?%?forK)eJu8Jg0Rn2GXS]iF63+Y8!'L@,lli807
     C0GVF75 1C2023 03 22.01445 12 29 52.19 +00 06 42.2    ~3M1M 21.7 VXNEOCP033
     C0GVF75 1C2023 03 22.01803 12 29 51.85 +00 06 50.4    ~3M1M 21.6 VXNEOCP033
     C0GVF75 1C2023 03 22.02162 12 29 51.53 +00 06 57.6    ~3M1M 21.5 VXNEOCP033
     C0GVF75 |C2023 03 22WpdoA+YsSluexplanation1ywIh9oX8UsEu%7AHH8g3rQ`LC[7BX807
     C0GVF75 |C2023 03 22`eK/wQ/5Jd.o:g`5j.'W:)X!/!\Gxoa=@q:LZ*PylEm4_($m05t$807
     C0GVF75 |C2023 03 22rR%(-)_1j+;q1P!aOG`B[E$99hNgmGsL)B2fSVB9L9Jn2+r'wr_k807

Station data:
(033) Karl Schwarzschild Observatory, Tautenburg  (N50.980137 E11.711240)
   Germany.  Observers S. Melnikov, C. Hoegner, B. Stecklum. Measurer B.
   Stecklum. 1.34-m f/3 Schmidt + CCD.
(807) Cerro Tololo Observatory, La Serena  (S30.169133 W70.805900)  Chile.
   Observer R. Holmes. 0.61-m f/6.5 astrograph + CCD.
(V00) Kitt Peak-Bok  (N31.963125 W111.600190)  US/Arizona.  Observers T. A.
   Pruyne, B. M. Africano, E. J. Christensen, G. A. Farneth, D. C. Fuls, A.
   R. Gibbs, A. D. Grauer, H. Gröller, J. A. Johnson, R. A. Kowalski, S. M.
   Larson, G. J. Leonard, D. Rankin, R. L. Seaman, F. C. Shelly, K. W.
   Wierzchoś. 2.25-m reflector + CCD.

Orbital elements:  C0GVF75
   Perihelion 2023 Jun 3.88835 +/- 0.114 TT = 21:19:13 (JD 2460099.38835)
Epoch 2023 Mar 22.0 TT = JDT 2460025.5   Earth MOID: 0.0256   Ve: 0.0404
M 320.98776837 +/- 0.34             Ma: 0.0887                   AutoNEOCP
n   0.52798895 +/- 0.00382          Peri.  113.22755 +/- 0.012
a   1.51607082 +/- 0.00731          Node   174.39769 +/- 0.021
e   0.5677537 +/- 0.00293           Incl.    4.25510 +/- 0.026
P   1.87/681.82d           H 24.21  G  0.15   U  9.0
q 0.65531598 +/- 0.0013    Q 2.37682566 +/- 0.0159        (J2000 ecliptic)
From 15 observations 2023 Mar. 18-22; mean residual 0".20
Residuals in arcseconds: 
230318 V00  .17-  .35-    230319 807  .09+  .10-    230322 033  .02-  .39+    
230318 V00  .07-  .08+    230320 807  .20+  .01-    230322 033  .20+  .14+    
230318 V00  .28+  .18+    230320 807  .03-  .04+    230322 807  .14+  .13-    
230319 807  .47-  .27+    230320 807  .13+  .04-    230322 807  .32-  .02-    
230319 807  .10+  .05-    230322 033  .07+  .38-    230322 807  .12-  .01-    

Ephemerides (geocentric):
Date (UTC) HH   RA             Dec           delta  r     elong  mag " sig PA
---- --------  ------------   ------------  ------ ------ -----  --- --------
2023 03 22 15  12 29 00.338   +00 28 57.36  .21313 1.2085 173.9 21.7 .042  76
2023 03 22 16  12 28 56.661   +00 30 29.04  .21272 1.2081 174.0 21.7 .039  74
2023 03 22 17  12 28 52.969   +00 32 01.06  .21230 1.2077 174.0 21.7 .037  72
2023 03 22 18  12 28 49.260   +00 33 33.44  .21189 1.2074 174.1 21.7 .034  69
2023 03 22 19  12 28 45.536   +00 35 06.18  .21147 1.2070 174.1 21.7 .032  66
2023 03 22 20  12 28 41.795   +00 36 39.28  .21106 1.2066 174.2 21.7 .030  62
2023 03 22 21  12 28 38.038   +00 38 12.73  .21065 1.2062 174.2 21.7 .027  57
2023 03 22 22  12 28 34.265   +00 39 46.55  .21023 1.2058 174.3 21.7 .025  52
2023 03 22 23  12 28 30.476   +00 41 20.74  .20982 1.2054 174.3 21.7 .023  46
2023 03 23 00  12 28 26.670   +00 42 55.29  .20941 1.2050 174.3 21.7 .022  38
2023 03 23 01  12 28 22.848   +00 44 30.20  .20899 1.2046 174.4 21.7 .021  30
2023 03 23 02  12 28 19.009   +00 46 05.49  .20858 1.2043 174.4 21.7 .020  21
2023 03 23 03  12 28 15.154   +00 47 41.15  .20817 1.2039 174.5 21.7 .020  11
2023 03 23 04  12 28 11.282   +00 49 17.18  .20775 1.2035 174.5 21.6 .021   1
2023 03 23 05  12 28 07.393   +00 50 53.59  .20734 1.2031 174.5 21.6 .022 172
2023 03 23 06  12 28 03.488   +00 52 30.37  .20693 1.2027 174.6 21.6 .023 164
2023 03 23 07  12 27 59.565   +00 54 07.54  .20652 1.2023 174.6 21.6 .025 156
2023 03 23 08  12 27 55.625   +00 55 45.08  .20611 1.2019 174.7 21.6 .027 150
2023 03 23 09  12 27 51.669   +00 57 23.00  .20570 1.2015 174.7 21.6 .030 145
2023 03 23 10  12 27 47.695   +00 59 01.31  .20529 1.2011 174.7 21.6 .033 140
2023 03 23 11  12 27 43.704   +01 00 40.01  .20487 1.2008 174.8 21.6 .036 137
2023 03 23 12  12 27 39.696   +01 02 19.09  .20446 1.2004 174.8 21.6 .039 134
2023 03 23 13  12 27 35.670   +01 03 58.57  .20405 1.2000 174.8 21.6 .043 131
2023 03 23 14  12 27 31.627   +01 05 38.43  .20364 1.1996 174.9 21.6 .046 128
2023 03 23 15  12 27 27.566   +01 07 18.69  .20323 1.1992 174.9 21.6 .050 126
2023 03 23 16  12 27 23.488   +01 08 59.35  .20282 1.1988 174.9 21.6 .053 125
2023 03 23 17  12 27 19.392   +01 10 40.40  .20242 1.1984 175.0 21.6 .057 123
2023 03 23 18  12 27 15.278   +01 12 21.86  .20201 1.1980 175.0 21.6 .061 121
2023 03 23 19  12 27 11.146   +01 14 03.72  .20160 1.1977 175.0 21.5 .065 120
2023 03 23 20  12 27 06.996   +01 15 45.98  .20119 1.1973 175.0 21.5 .069 119
2023 03 23 21  12 27 02.829   +01 17 28.64  .20078 1.1969 175.1 21.5 .073 118
2023 03 23 22  12 26 58.643   +01 19 11.72  .20037 1.1965 175.1 21.5 .077 117
2023 03 23 23  12 26 54.439   +01 20 55.20  .19996 1.1961 175.1 21.5 .081 116
2023 03 24 00  12 26 50.216   +01 22 39.10  .19956 1.1957 175.2 21.5 .085 115
2023 03 24 01  12 26 45.975   +01 24 23.41  .19915 1.1953 175.2 21.5 .089 114
2023 03 24 02  12 26 41.716   +01 26 08.14  .19874 1.1949 175.2 21.5 .094 114
2023 03 24 03  12 26 37.438   +01 27 53.29  .19833 1.1945 175.2 21.5 .098 113
2023 03 24 04  12 26 33.142   +01 29 38.85  .19793 1.1942 175.2 21.5 .102 112
2023 03 24 05  12 26 28.826   +01 31 24.84  .19752 1.1938 175.3 21.5 .107 112
2023 03 24 06  12 26 24.492   +01 33 11.26  .19711 1.1934 175.3 21.5 .111 111
2023 03 24 07  12 26 20.139   +01 34 58.10  .19671 1.1930 175.3 21.5 .115 111
2023 03 24 08  12 26 15.767   +01 36 45.38  .19630 1.1926 175.3 21.5 .120 110
2023 03 24 09  12 26 11.376   +01 38 33.08  .19590 1.1922 175.3 21.5 .125 110
2023 03 24 10  12 26 06.965   +01 40 21.22  .19549 1.1918 175.3 21.5 .129 109
2023 03 24 11  12 26 02.535   +01 42 09.79  .19509 1.1914 175.4 21.4 .134 109
2023 03 24 12  12 25 58.086   +01 43 58.81  .19468 1.1910 175.4 21.4 .138 109
2023 03 24 13  12 25 53.617   +01 45 48.26  .19428 1.1906 175.4 21.4 .143 108
2023 03 24 14  12 25 49.129   +01 47 38.16  .19387 1.1903 175.4 21.4 .148 108